CDG2451 ZSNJ-VGHS

Flight info

Callsign CDG2451
Flight time 4h 33m
Altitude 36100
Route HFE R343 WHA A581 SGM A599 LINSO/N0466F361 A599 LSO DCT MO DCT PABAN
Aircraft B738/M-SDE2E3FGHIRWXY/LB1

Departure

Time 2026-04-25 03:50
Airport Nanjing Lukou International Airport (ZSNJ)

Arrival

Time 2026-04-25 08:23
Airport Hazrat Shahjalal International Airport (VGHS)
Time Latitude Longitude Altitude Speed Heading
2026-04-25 03:12 31.73659 118.86060 56 ft 0 kts 100°
2026-04-25 03:39 31.73661 118.86046 56 ft 2 kts 102°
2026-04-25 03:40 31.73664 118.86028 56 ft 2 kts 101°
2026-04-25 03:40 31.73667 118.86011 56 ft 2 kts 101°
2026-04-25 03:40 31.73670 118.85994 56 ft 2 kts 101°
2026-04-25 03:40 31.73672 118.85983 56 ft 2 kts 96°
2026-04-25 03:41 31.73668 118.85966 56 ft 2 kts 58°
2026-04-25 03:41 31.73658 118.85953 56 ft 2 kts 26°
2026-04-25 03:41 31.73643 118.85949 56 ft 2 kts 356°
2026-04-25 03:41 31.73633 118.85952 56 ft 0 kts 334°
2026-04-25 03:42 31.73626 118.85956 56 ft 0 kts 331°
2026-04-25 03:44 31.73632 118.85953 56 ft 2 kts 333°
2026-04-25 03:44 31.73657 118.85939 56 ft 6 kts 335°
2026-04-25 03:44 31.73705 118.85906 56 ft 9 kts 328°
2026-04-25 03:44 31.73766 118.85861 56 ft 9 kts 328°
2026-04-25 03:45 31.73792 118.85801 56 ft 8 kts 255°
2026-04-25 03:45 31.73761 118.85738 56 ft 9 kts 238°
2026-04-25 03:45 31.73721 118.85662 56 ft 12 kts 238°
2026-04-25 03:45 31.73671 118.85571 56 ft 14 kts 238°
2026-04-25 03:46 31.73613 118.85465 56 ft 16 kts 240°
2026-04-25 03:46 31.73550 118.85342 56 ft 18 kts 238°
2026-04-25 03:46 31.73476 118.85204 56 ft 20 kts 238°
2026-04-25 03:46 31.73405 118.85071 56 ft 18 kts 238°
2026-04-25 03:47 31.73338 118.84945 56 ft 17 kts 238°
2026-04-25 03:47 31.73277 118.84831 56 ft 15 kts 238°
2026-04-25 03:47 31.73234 118.84751 56 ft 7 kts 238°
2026-04-25 03:47 31.73230 118.84703 56 ft 5 kts 305°
2026-04-25 03:48 31.73260 118.84674 56 ft 6 kts 328°
2026-04-25 03:48 31.73303 118.84642 56 ft 8 kts 328°
2026-04-25 03:48 31.73352 118.84612 56 ft 6 kts 360°
2026-04-25 03:48 31.73386 118.84641 56 ft 5 kts 54°
2026-04-25 03:49 31.73408 118.84679 56 ft 8 kts 57°
2026-04-25 03:49 31.73538 118.84924 56 ft 69 kts 58°
2026-04-25 03:49 31.73914 118.85626 56 ft 131 kts 58°
2026-04-25 03:49 31.74499 118.86716 93 ft 177 kts 59°
2026-04-25 03:50 31.75152 118.87942 712 ft 178 kts 59°
2026-04-25 03:50 31.75797 118.89150 1403 ft 179 kts 59°
2026-04-25 03:50 31.76449 118.90370 2015 ft 172 kts 59°
2026-04-25 03:50 31.77086 118.91569 2284 ft 178 kts 60°
2026-04-25 03:51 31.77752 118.92827 2594 ft 181 kts 60°
2026-04-25 03:51 31.78421 118.94085 2943 ft 182 kts 59°
2026-04-25 03:51 31.79105 118.95370 3300 ft 188 kts 60°
2026-04-25 03:51 31.79821 118.96718 3626 ft 200 kts 59°
2026-04-25 03:52 31.80576 118.98134 3921 ft 214 kts 59°
2026-04-25 03:52 31.81397 118.99674 4260 ft 228 kts 59°
2026-04-25 03:52 31.82247 119.01271 4794 ft 232 kts 59°
2026-04-25 03:52 31.83107 119.02887 5372 ft 234 kts 58°
2026-04-25 03:53 31.83977 119.04518 5952 ft 237 kts 58°
2026-04-25 03:53 31.84845 119.06148 6535 ft 239 kts 58°
2026-04-25 03:53 31.85733 119.07814 7126 ft 240 kts 58°
2026-04-25 03:53 31.86618 119.09476 7642 ft 243 kts 58°
2026-04-25 03:54 31.87554 119.11134 8196 ft 245 kts 50°
2026-04-25 03:54 31.88917 119.12305 8667 ft 249 kts 20°
2026-04-25 03:54 31.90620 119.12598 9230 ft 251 kts 357°
2026-04-25 03:54 31.92340 119.12187 9738 ft 255 kts 341°
2026-04-25 03:55 31.93913 119.11134 10185 ft 263 kts 315°
2026-04-25 03:55 31.94888 119.09364 10748 ft 264 kts 289°
2026-04-25 03:55 31.95187 119.07220 11304 ft 266 kts 270°
2026-04-25 03:55 31.94907 119.05084 11820 ft 270 kts 252°
2026-04-25 03:56 31.94105 119.03059 12323 ft 275 kts 239°
2026-04-25 03:56 31.93026 119.01166 12583 ft 289 kts 236°
2026-04-25 03:56 31.91835 118.99172 12852 ft 303 kts 237°
2026-04-25 03:56 31.90648 118.97084 13120 ft 316 kts 238°
2026-04-25 03:57 31.89443 118.94869 13356 ft 331 kts 239°
2026-04-25 03:57 31.88190 118.92512 13600 ft 345 kts 239°
2026-04-25 03:57 31.86896 118.90060 13847 ft 360 kts 239°
2026-04-25 03:57 31.85577 118.87533 14104 ft 373 kts 241°
2026-04-25 03:58 31.84470 118.84732 14614 ft 377 kts 253°
2026-04-25 03:58 31.83891 118.81734 14916 ft 382 kts 262°
2026-04-25 03:58 31.83579 118.78630 14903 ft 380 kts 266°
2026-04-25 03:58 31.83380 118.75579 14894 ft 376 kts 267°
2026-04-25 03:59 31.83196 118.72503 14906 ft 379 kts 267°
2026-04-25 03:59 31.82991 118.69405 14894 ft 378 kts 266°
2026-04-25 03:59 31.82760 118.66318 14911 ft 378 kts 266°
2026-04-25 03:59 31.82512 118.63268 14897 ft 379 kts 265°
2026-04-25 04:00 31.82247 118.60213 14896 ft 378 kts 265°
2026-04-25 04:00 31.81971 118.57124 14896 ft 378 kts 265°
2026-04-25 04:00 31.81694 118.54064 14896 ft 379 kts 265°
2026-04-25 04:00 31.81412 118.50977 14894 ft 378 kts 265°
2026-04-25 04:01 31.81129 118.47877 14892 ft 378 kts 265°
2026-04-25 04:01 31.80849 118.44817 14891 ft 379 kts 265°
2026-04-25 04:01 31.80568 118.41752 14888 ft 378 kts 265°
2026-04-25 04:01 31.80286 118.38682 14885 ft 378 kts 265°
2026-04-25 04:02 31.80005 118.35619 14886 ft 378 kts 265°
2026-04-25 04:02 31.79719 118.32518 14884 ft 378 kts 265°
2026-04-25 04:02 31.79442 118.29435 14887 ft 379 kts 266°
2026-04-25 04:02 31.79282 118.26292 15342 ft 386 kts 269°
2026-04-25 04:03 31.79228 118.23201 16148 ft 383 kts 270°
2026-04-25 04:03 31.79206 118.20046 16732 ft 387 kts 271°
2026-04-25 04:03 31.79184 118.16884 17318 ft 390 kts 270°
2026-04-25 04:03 31.79152 118.13695 17882 ft 393 kts 270°
2026-04-25 04:04 31.79107 118.10482 18414 ft 397 kts 270°
2026-04-25 04:04 31.79053 118.07242 19033 ft 398 kts 270°
2026-04-25 04:04 31.78998 118.04029 19540 ft 402 kts 270°
2026-04-25 04:04 31.78942 118.00746 20120 ft 403 kts 270°
2026-04-25 04:05 31.78883 117.97425 20618 ft 407 kts 270°
2026-04-25 04:05 31.78823 117.94107 21245 ft 407 kts 270°
2026-04-25 04:05 31.78763 117.90771 21688 ft 411 kts 270°
2026-04-25 04:05 31.78702 117.87414 22204 ft 413 kts 270°
2026-04-25 04:06 31.78639 117.84079 22663 ft 415 kts 270°
2026-04-25 04:06 31.78574 117.80658 23111 ft 419 kts 270°
2026-04-25 04:06 31.78508 117.77238 23616 ft 420 kts 270°
2026-04-25 04:06 31.78442 117.73841 24011 ft 424 kts 270°
2026-04-25 04:07 31.78372 117.70363 24462 ft 426 kts 269°
2026-04-25 04:07 31.78302 117.66892 24886 ft 429 kts 269°
2026-04-25 04:07 31.78230 117.63361 25327 ft 431 kts 269°
2026-04-25 04:07 31.78158 117.59862 25679 ft 434 kts 269°
2026-04-25 04:08 31.78084 117.56299 26126 ft 436 kts 269°
2026-04-25 04:08 31.78010 117.52734 26486 ft 439 kts 269°
2026-04-25 04:08 31.77933 117.49159 26822 ft 442 kts 269°
2026-04-25 04:08 31.77855 117.45564 27181 ft 445 kts 269°
2026-04-25 04:09 31.77775 117.41923 27551 ft 447 kts 269°
2026-04-25 04:09 31.77692 117.38245 27921 ft 450 kts 269°
2026-04-25 04:09 31.77551 117.34586 28277 ft 451 kts 266°
2026-04-25 04:09 31.77206 117.30901 28631 ft 454 kts 261°
2026-04-25 04:10 31.76544 117.27283 28922 ft 457 kts 255°
2026-04-25 04:10 31.75637 117.23710 29391 ft 456 kts 252°
2026-04-25 04:10 31.74603 117.20177 29931 ft 453 kts 251°
2026-04-25 04:10 31.73516 117.16677 30375 ft 452 kts 250°
2026-04-25 04:11 31.71328 117.09830 31393 ft 443 kts 250°
2026-04-25 04:11 31.70258 117.06477 31786 ft 440 kts 250°
2026-04-25 04:11 31.69187 117.03101 32115 ft 439 kts 250°
2026-04-25 04:12 31.68124 116.99734 32435 ft 438 kts 250°
2026-04-25 04:12 31.67076 116.96426 32727 ft 438 kts 250°
2026-04-25 04:12 31.66015 116.93091 32942 ft 439 kts 250°
2026-04-25 04:12 31.64941 116.89716 33203 ft 438 kts 250°
2026-04-25 04:13 31.63884 116.86400 33583 ft 433 kts 250°
2026-04-25 04:13 31.62830 116.83093 33856 ft 431 kts 250°
2026-04-25 04:13 31.61786 116.79822 34075 ft 430 kts 250°
2026-04-25 04:14 31.59684 116.73234 34165 ft 433 kts 250°
2026-04-25 04:14 31.57585 116.66665 34170 ft 429 kts 251°
2026-04-25 04:15 31.55480 116.60084 34163 ft 431 kts 251°
2026-04-25 04:15 31.53372 116.53500 34165 ft 431 kts 251°
2026-04-25 04:16 31.51274 116.46961 34163 ft 431 kts 251°
2026-04-25 04:16 31.49165 116.40398 34174 ft 432 kts 251°
2026-04-25 04:17 31.47044 116.33810 34165 ft 433 kts 251°
2026-04-25 04:17 31.44924 116.27241 34175 ft 433 kts 251°
2026-04-25 04:18 31.42786 116.20627 34180 ft 434 kts 251°
2026-04-25 04:18 31.40644 116.14020 34177 ft 433 kts 251°
2026-04-25 04:19 31.38500 116.07420 34195 ft 435 kts 251°
2026-04-25 04:19 31.36341 116.00784 34189 ft 435 kts 251°
2026-04-25 04:20 31.34185 115.94167 34206 ft 434 kts 251°
2026-04-25 04:20 31.32029 115.87567 34193 ft 435 kts 252°
2026-04-25 04:21 31.29877 115.80888 34202 ft 434 kts 252°
2026-04-25 04:21 31.27763 115.74248 34206 ft 434 kts 252°
2026-04-25 04:22 31.25657 115.67651 34200 ft 435 kts 252°
2026-04-25 04:22 31.23551 115.61083 34195 ft 433 kts 252°
2026-04-25 04:23 31.21432 115.54500 34206 ft 435 kts 252°
2026-04-25 04:23 31.19301 115.47893 34138 ft 433 kts 252°
2026-04-25 04:24 31.17178 115.41320 34196 ft 436 kts 252°
2026-04-25 04:24 31.15042 115.34720 34188 ft 435 kts 252°
2026-04-25 04:25 31.12898 115.28108 34188 ft 435 kts 252°
2026-04-25 04:25 31.10789 115.21508 34159 ft 434 kts 253°
2026-04-25 04:26 31.08698 115.14898 34158 ft 436 kts 253°
2026-04-25 04:26 31.06603 115.08311 34148 ft 437 kts 253°
2026-04-25 04:27 31.04470 115.01627 34141 ft 437 kts 253°
2026-04-25 04:27 31.02353 114.95009 34128 ft 438 kts 253°
2026-04-25 04:28 31.00237 114.88410 34126 ft 437 kts 253°
2026-04-25 04:28 30.98107 114.81789 34139 ft 436 kts 253°
2026-04-25 04:29 30.95972 114.75170 34133 ft 435 kts 253°
2026-04-25 04:29 30.93840 114.68568 34131 ft 434 kts 253°
2026-04-25 04:30 30.91715 114.62000 34131 ft 436 kts 254°
2026-04-25 04:30 30.89583 114.55424 34137 ft 436 kts 254°
2026-04-25 04:31 30.87446 114.48845 34143 ft 436 kts 254°
2026-04-25 04:31 30.85295 114.42219 34147 ft 434 kts 255°
2026-04-25 04:32 30.83176 114.35641 34148 ft 434 kts 255°
2026-04-25 04:32 30.81049 114.29042 34148 ft 434 kts 254°
2026-04-25 04:33 30.78847 114.22485 34144 ft 436 kts 251°
2026-04-25 04:33 30.76016 114.16228 34150 ft 441 kts 244°
2026-04-25 04:34 30.72753 114.10218 34149 ft 442 kts 243°
2026-04-25 04:34 30.69390 114.04238 34143 ft 443 kts 243°
2026-04-25 04:35 30.66025 113.98239 34142 ft 442 kts 243°
2026-04-25 04:35 30.62685 113.92247 34145 ft 442 kts 243°
2026-04-25 04:36 30.59370 113.86269 34132 ft 440 kts 244°
2026-04-25 04:36 30.56060 113.80297 34131 ft 442 kts 244°
2026-04-25 04:37 30.52734 113.74300 34129 ft 439 kts 244°
2026-04-25 04:37 30.49428 113.68341 34134 ft 439 kts 244°
2026-04-25 04:38 30.46142 113.62427 34131 ft 439 kts 244°
2026-04-25 04:38 30.42843 113.56501 34126 ft 438 kts 244°
2026-04-25 04:39 30.39528 113.50549 34134 ft 441 kts 244°
2026-04-25 04:39 30.36203 113.44589 34133 ft 440 kts 244°
2026-04-25 04:40 30.32905 113.38694 34135 ft 438 kts 244°
2026-04-25 04:40 30.29591 113.32770 34129 ft 439 kts 244°
2026-04-25 04:41 30.26275 113.26859 34136 ft 438 kts 244°
2026-04-25 04:41 30.22934 113.20911 34136 ft 439 kts 244°
2026-04-25 04:42 30.19633 113.15005 34131 ft 437 kts 244°
2026-04-25 04:42 30.16377 113.09103 34136 ft 436 kts 245°
2026-04-25 04:43 30.13101 113.03129 34129 ft 438 kts 245°
2026-04-25 04:43 30.09853 112.97227 34125 ft 438 kts 245°
2026-04-25 04:44 30.06573 112.91287 34134 ft 438 kts 245°
2026-04-25 04:44 30.03297 112.85369 34129 ft 436 kts 245°
2026-04-25 04:45 30.00016 112.79446 34123 ft 439 kts 244°
2026-04-25 04:45 29.96734 112.73538 34126 ft 436 kts 245°
2026-04-25 04:46 29.93441 112.67614 34125 ft 436 kts 244°
2026-04-25 04:46 29.90155 112.61712 34126 ft 435 kts 245°
2026-04-25 04:47 29.86889 112.55857 34122 ft 432 kts 245°
2026-04-25 04:47 29.83619 112.50003 34120 ft 431 kts 245°
2026-04-25 04:48 29.80390 112.44231 34117 ft 430 kts 245°
2026-04-25 04:48 29.77131 112.38406 34114 ft 432 kts 245°
2026-04-25 04:49 29.73880 112.32604 34118 ft 432 kts 244°
2026-04-25 04:49 29.70617 112.26814 34113 ft 430 kts 244°
2026-04-25 04:50 29.67351 112.21045 34118 ft 431 kts 244°
2026-04-25 04:50 29.64107 112.15330 34117 ft 427 kts 244°
2026-04-25 04:51 29.60846 112.09581 34115 ft 428 kts 244°
2026-04-25 04:51 29.57611 112.03889 34118 ft 428 kts 244°
2026-04-25 04:52 29.54362 111.98180 34109 ft 427 kts 244°
2026-04-25 04:52 29.51097 111.92446 34113 ft 429 kts 244°
2026-04-25 04:53 29.47849 111.86753 34116 ft 427 kts 244°
2026-04-25 04:53 29.44603 111.81072 34103 ft 425 kts 244°
2026-04-25 04:54 29.41367 111.75412 34109 ft 425 kts 244°
2026-04-25 04:54 29.38110 111.69725 34108 ft 425 kts 244°
2026-04-25 04:55 29.35131 111.63962 34105 ft 419 kts 251°
2026-04-25 04:55 29.32771 111.57807 34106 ft 416 kts 254°
2026-04-25 04:56 29.30650 111.51639 34101 ft 417 kts 255°
2026-04-25 04:56 29.28529 111.45416 34105 ft 413 kts 255°
2026-04-25 04:57 29.26409 111.39256 34104 ft 417 kts 255°
2026-04-25 04:57 29.24258 111.33063 34104 ft 417 kts 255°
2026-04-25 04:58 29.22078 111.26817 34103 ft 415 kts 254°
2026-04-25 04:58 29.19911 111.20628 34109 ft 416 kts 254°
2026-04-25 04:59 29.17736 111.14426 34114 ft 418 kts 255°
2026-04-25 04:59 29.15564 111.08247 34122 ft 417 kts 254°
2026-04-25 05:00 29.13394 111.02090 34134 ft 416 kts 255°
2026-04-25 05:00 29.11240 110.95985 34130 ft 415 kts 255°
2026-04-25 05:01 29.09075 110.89855 34128 ft 416 kts 255°
2026-04-25 05:01 29.06902 110.83705 34129 ft 420 kts 255°
2026-04-25 05:02 29.04727 110.77569 34126 ft 416 kts 255°
2026-04-25 05:02 29.02540 110.71411 34138 ft 419 kts 255°
2026-04-25 05:03 29.00367 110.65224 34145 ft 420 kts 255°
2026-04-25 05:03 28.98216 110.59077 34151 ft 415 kts 255°
2026-04-25 05:04 28.96067 110.52933 34156 ft 417 kts 255°
2026-04-25 05:04 28.93911 110.46793 34160 ft 417 kts 255°
2026-04-25 05:05 28.91760 110.40682 34159 ft 415 kts 255°
2026-04-25 05:05 28.89590 110.34532 34158 ft 417 kts 255°
2026-04-25 05:06 28.87407 110.28348 34159 ft 416 kts 255°
2026-04-25 05:06 28.85232 110.22201 34161 ft 418 kts 255°
2026-04-25 05:07 28.83056 110.16067 34161 ft 419 kts 255°
2026-04-25 05:07 28.80880 110.09943 34167 ft 419 kts 255°
2026-04-25 05:08 28.78694 110.03797 34173 ft 420 kts 255°
2026-04-25 05:08 28.76503 109.97649 34175 ft 419 kts 255°
2026-04-25 05:09 28.74307 109.91504 34169 ft 417 kts 255°
2026-04-25 05:09 28.72128 109.85411 34162 ft 416 kts 255°
2026-04-25 05:10 28.69943 109.79310 34150 ft 418 kts 255°
2026-04-25 05:10 28.67741 109.73163 34141 ft 418 kts 255°
2026-04-25 05:11 28.65523 109.66997 34139 ft 417 kts 255°
2026-04-25 05:11 28.63375 109.60880 34146 ft 414 kts 256°
2026-04-25 05:12 28.60245 109.51667 34159 ft 414 kts 256°
2026-04-25 05:12 28.58161 109.45563 34161 ft 415 kts 256°
2026-04-25 05:13 28.55772 109.39550 34156 ft 418 kts 252°
2026-04-25 05:13 28.53124 109.33651 34156 ft 421 kts 251°
2026-04-25 05:14 28.50449 109.27722 34148 ft 421 kts 251°
2026-04-25 05:15 28.46486 109.18839 34157 ft 421 kts 251°
2026-04-25 05:15 28.43842 109.12873 34163 ft 417 kts 251°
2026-04-25 05:16 28.41238 109.07001 34167 ft 418 kts 251°
2026-04-25 05:16 28.38622 109.01100 34165 ft 422 kts 251°
2026-04-25 05:17 28.35986 108.95182 34177 ft 416 kts 251°
2026-04-25 05:17 28.33381 108.89324 34190 ft 418 kts 251°
2026-04-25 05:18 28.30739 108.83395 34194 ft 419 kts 251°
2026-04-25 05:18 28.28125 108.77548 34203 ft 417 kts 251°
2026-04-25 05:19 28.25499 108.71680 34208 ft 416 kts 251°
2026-04-25 05:19 28.22890 108.65850 34198 ft 417 kts 251°
2026-04-25 05:20 28.20269 108.60006 34196 ft 417 kts 251°
2026-04-25 05:20 28.17646 108.54166 34190 ft 417 kts 251°
2026-04-25 05:21 28.15015 108.48315 34182 ft 416 kts 251°
2026-04-25 05:21 28.12400 108.42512 34182 ft 415 kts 251°
2026-04-25 05:22 28.09758 108.36647 34179 ft 418 kts 251°
2026-04-25 05:22 28.07128 108.30825 34177 ft 415 kts 250°
2026-04-25 05:23 28.04495 108.25006 34183 ft 416 kts 251°
2026-04-25 05:23 28.01864 108.19190 34187 ft 417 kts 250°
2026-04-25 05:24 27.99214 108.13349 34186 ft 419 kts 251°
2026-04-25 05:24 27.96560 108.07507 34180 ft 416 kts 251°
2026-04-25 05:25 27.93916 108.01701 34176 ft 418 kts 250°
2026-04-25 05:25 27.91251 107.95843 34180 ft 419 kts 251°
2026-04-25 05:26 27.88586 107.89997 34187 ft 418 kts 250°
2026-04-25 05:26 27.85926 107.84180 34196 ft 417 kts 250°
2026-04-25 05:27 27.83264 107.78358 34210 ft 420 kts 250°
2026-04-25 05:27 27.80606 107.72495 34226 ft 416 kts 250°
2026-04-25 05:28 27.78026 107.66695 34228 ft 415 kts 251°
2026-04-25 05:28 27.75431 107.60857 34220 ft 417 kts 251°
2026-04-25 05:29 27.72818 107.54992 34222 ft 419 kts 251°
2026-04-25 05:29 27.70216 107.49182 34223 ft 415 kts 250°
2026-04-25 05:30 27.67600 107.43351 34229 ft 417 kts 250°
2026-04-25 05:30 27.64989 107.37540 34235 ft 416 kts 250°
2026-04-25 05:31 27.62366 107.31707 34236 ft 417 kts 250°
2026-04-25 05:31 27.59751 107.25899 34239 ft 417 kts 249°
2026-04-25 05:32 27.57129 107.20087 34245 ft 417 kts 249°
2026-04-25 05:32 27.54493 107.14249 34250 ft 417 kts 250°
2026-04-25 05:33 27.51859 107.08415 34255 ft 419 kts 250°
2026-04-25 05:33 27.49238 107.02618 34255 ft 417 kts 249°
2026-04-25 05:34 27.46595 106.96777 34253 ft 419 kts 250°
2026-04-25 05:34 27.43988 106.90944 34251 ft 419 kts 250°
2026-04-25 05:35 27.41360 106.85047 34246 ft 421 kts 249°
2026-04-25 05:35 27.38748 106.79208 34243 ft 419 kts 249°
2026-04-25 05:36 27.36116 106.73332 34239 ft 422 kts 249°
2026-04-25 05:36 27.33474 106.67473 34240 ft 419 kts 249°
2026-04-25 05:37 27.30837 106.61648 34243 ft 420 kts 249°
2026-04-25 05:37 27.28189 106.55803 34249 ft 420 kts 249°
2026-04-25 05:38 27.25538 106.49952 34253 ft 421 kts 249°
2026-04-25 05:38 27.24202 106.47007 34358 ft 425 kts 249°
2026-04-25 05:38 27.22865 106.44063 34827 ft 422 kts 249°
2026-04-25 05:38 27.21526 106.41120 35377 ft 418 kts 248°
2026-04-25 05:39 27.20227 106.38271 35914 ft 413 kts 248°
2026-04-25 05:39 27.18924 106.35410 36273 ft 412 kts 248°
2026-04-25 05:39 27.17608 106.32513 36274 ft 415 kts 248°
2026-04-25 05:40 27.15003 106.26787 36281 ft 411 kts 248°
2026-04-25 05:40 27.12395 106.21065 36283 ft 413 kts 248°
2026-04-25 05:41 27.09789 106.15346 36281 ft 414 kts 247°
2026-04-25 05:41 27.07174 106.09625 36283 ft 412 kts 247°
2026-04-25 05:42 27.04546 106.03880 36288 ft 413 kts 247°
2026-04-25 05:42 27.02069 105.98096 36287 ft 410 kts 250°
2026-04-25 05:43 26.99807 105.92262 36287 ft 411 kts 251°
2026-04-25 05:43 26.97535 105.86363 36293 ft 411 kts 251°
2026-04-25 05:44 26.95244 105.80483 36304 ft 413 kts 250°
2026-04-25 05:44 26.92934 105.74620 36315 ft 412 kts 250°
2026-04-25 05:45 26.90617 105.68771 36314 ft 413 kts 250°
2026-04-25 05:45 26.88283 105.62890 36324 ft 414 kts 250°
2026-04-25 05:46 26.85954 105.57032 36329 ft 414 kts 250°
2026-04-25 05:46 26.83618 105.51161 36334 ft 413 kts 250°
2026-04-25 05:47 26.81278 105.45288 36330 ft 414 kts 250°
2026-04-25 05:47 26.78927 105.39400 36331 ft 414 kts 250°
2026-04-25 05:48 26.76574 105.33523 36342 ft 414 kts 249°
2026-04-25 05:48 26.74225 105.27659 36348 ft 415 kts 249°
2026-04-25 05:49 26.71870 105.21790 36352 ft 413 kts 249°
2026-04-25 05:49 26.69519 105.15937 36353 ft 415 kts 249°
2026-04-25 05:50 26.67144 105.10032 36350 ft 415 kts 249°
2026-04-25 05:50 26.64767 105.04202 36346 ft 416 kts 247°
2026-04-25 05:51 26.61865 104.98534 36347 ft 420 kts 241°
2026-04-25 05:51 26.58665 104.93115 36348 ft 419 kts 240°
2026-04-25 05:52 26.55405 104.87672 36359 ft 422 kts 240°
2026-04-25 05:52 26.52185 104.82252 36362 ft 421 kts 240°
2026-04-25 05:53 26.48962 104.76791 36372 ft 420 kts 240°
2026-04-25 05:53 26.45765 104.71360 36380 ft 422 kts 241°
2026-04-25 05:54 26.42543 104.65882 36377 ft 422 kts 241°
2026-04-25 05:54 26.37718 104.57690 36373 ft 424 kts 241°
2026-04-25 05:55 26.34469 104.52184 36375 ft 422 kts 240°
2026-04-25 05:55 26.31233 104.46710 36377 ft 423 kts 240°
2026-04-25 05:56 26.28002 104.41248 36378 ft 424 kts 241°
2026-04-25 05:56 26.24759 104.35773 36393 ft 423 kts 241°
2026-04-25 05:57 26.21517 104.30312 36396 ft 423 kts 240°
2026-04-25 05:57 26.18283 104.24860 36407 ft 424 kts 240°
2026-04-25 05:58 26.15042 104.19406 36417 ft 424 kts 240°
2026-04-25 05:58 26.11776 104.13921 36429 ft 425 kts 240°
2026-04-25 05:59 26.08518 104.08458 36431 ft 426 kts 240°
2026-04-25 05:59 26.05249 104.02982 36434 ft 426 kts 240°
2026-04-25 06:00 26.01966 103.97485 36438 ft 426 kts 240°
2026-04-25 06:00 25.98692 103.92005 36446 ft 427 kts 240°
2026-04-25 06:01 25.95414 103.86500 36442 ft 426 kts 240°
2026-04-25 06:01 25.92196 103.81023 36467 ft 424 kts 241°
2026-04-25 06:02 25.88977 103.75532 36459 ft 425 kts 241°
2026-04-25 06:02 25.85745 103.70037 36460 ft 422 kts 241°
2026-04-25 06:03 25.82544 103.64608 36471 ft 421 kts 241°
2026-04-25 06:03 25.79352 103.59198 36471 ft 419 kts 241°
2026-04-25 06:04 25.76131 103.53758 36472 ft 420 kts 241°
2026-04-25 06:04 25.72958 103.48408 36474 ft 419 kts 241°
2026-04-25 06:05 25.69757 103.43008 36475 ft 419 kts 241°
2026-04-25 06:05 25.66554 103.37614 36473 ft 417 kts 242°
2026-04-25 06:06 25.63367 103.32248 36466 ft 419 kts 241°
2026-04-25 06:06 25.60178 103.26890 36468 ft 417 kts 241°
2026-04-25 06:07 25.56973 103.21512 36461 ft 417 kts 241°
2026-04-25 06:07 25.53788 103.16167 36450 ft 416 kts 241°
2026-04-25 06:08 25.50588 103.10834 36458 ft 417 kts 242°
2026-04-25 06:08 25.47404 103.05437 36459 ft 416 kts 242°
2026-04-25 06:09 25.44212 103.00130 36468 ft 415 kts 241°
2026-04-25 06:09 25.41028 102.94798 36452 ft 414 kts 241°
2026-04-25 06:10 25.37567 102.89708 36452 ft 420 kts 236°
2026-04-25 06:10 25.33760 102.84842 36447 ft 417 kts 234°
2026-04-25 06:11 25.29909 102.79987 36461 ft 418 kts 234°
2026-04-25 06:11 25.26119 102.75160 36465 ft 416 kts 236°
2026-04-25 06:12 25.22346 102.70303 36453 ft 417 kts 236°
2026-04-25 06:12 25.18592 102.65477 36443 ft 415 kts 235°
2026-04-25 06:13 25.14826 102.60626 36422 ft 414 kts 235°
2026-04-25 06:14 25.09292 102.53346 36423 ft 409 kts 239°
2026-04-25 06:14 25.06274 102.48112 36424 ft 406 kts 246°
2026-04-25 06:15 25.03610 102.42621 36420 ft 404 kts 248°
2026-04-25 06:15 25.01044 102.37167 36414 ft 403 kts 248°
2026-04-25 06:16 24.98449 102.31665 36401 ft 403 kts 247°
2026-04-25 06:16 24.95867 102.26221 36385 ft 401 kts 247°
2026-04-25 06:17 24.93291 102.20819 36376 ft 401 kts 247°
2026-04-25 06:17 24.90685 102.15363 36361 ft 402 kts 247°
2026-04-25 06:18 24.88081 102.09927 36353 ft 400 kts 247°
2026-04-25 06:18 24.85494 102.04529 36341 ft 401 kts 247°
2026-04-25 06:19 24.82889 101.99094 36342 ft 400 kts 247°
2026-04-25 06:19 24.80308 101.93713 36345 ft 399 kts 247°
2026-04-25 06:20 24.77705 101.88302 36348 ft 400 kts 247°
2026-04-25 06:20 24.75098 101.82889 36344 ft 400 kts 247°
2026-04-25 06:21 24.72508 101.77521 36341 ft 398 kts 247°
2026-04-25 06:21 24.69909 101.72133 36343 ft 400 kts 247°
2026-04-25 06:22 24.67311 101.66749 36326 ft 400 kts 247°
2026-04-25 06:22 24.64700 101.61352 36314 ft 400 kts 247°
2026-04-25 06:23 24.62090 101.55967 36285 ft 400 kts 247°
2026-04-25 06:23 24.59472 101.50622 36275 ft 398 kts 246°
2026-04-25 06:24 24.56833 101.45276 36266 ft 398 kts 246°
2026-04-25 06:24 24.54199 101.39951 36267 ft 397 kts 247°
2026-04-25 06:25 24.51557 101.34602 36272 ft 400 kts 246°
2026-04-25 06:25 24.48902 101.29238 36284 ft 400 kts 246°
2026-04-25 06:26 24.46273 101.23934 36317 ft 397 kts 247°
2026-04-25 06:26 24.43627 101.18588 36338 ft 400 kts 246°
2026-04-25 06:27 24.40972 101.13242 36348 ft 396 kts 246°
2026-04-25 06:27 24.38337 101.07936 36360 ft 397 kts 246°
2026-04-25 06:28 24.35707 101.02644 36345 ft 398 kts 246°
2026-04-25 06:28 24.33051 100.97312 36335 ft 397 kts 247°
2026-04-25 06:29 24.30424 100.92045 36340 ft 395 kts 246°
2026-04-25 06:29 24.27774 100.86735 36349 ft 397 kts 247°
2026-04-25 06:30 24.25146 100.81470 36361 ft 395 kts 247°
2026-04-25 06:30 24.22504 100.76191 36374 ft 396 kts 247°
2026-04-25 06:31 24.19873 100.70938 36354 ft 394 kts 247°
2026-04-25 06:31 24.17243 100.65688 36326 ft 393 kts 247°
2026-04-25 06:32 24.14602 100.60420 36303 ft 395 kts 247°
2026-04-25 06:32 24.11972 100.55184 36274 ft 393 kts 247°
2026-04-25 06:33 24.09308 100.49953 36252 ft 393 kts 246°
2026-04-25 06:33 24.06633 100.44751 36304 ft 393 kts 247°
2026-04-25 06:34 24.03956 100.39538 36364 ft 393 kts 247°
2026-04-25 06:34 24.01287 100.34338 36418 ft 392 kts 246°
2026-04-25 06:35 23.98597 100.29105 36463 ft 393 kts 246°
2026-04-25 06:35 23.95942 100.23945 36483 ft 393 kts 246°
2026-04-25 06:36 23.93258 100.18730 36458 ft 393 kts 246°
2026-04-25 06:36 23.90580 100.13538 36435 ft 391 kts 246°
2026-04-25 06:37 23.87914 100.08372 36420 ft 391 kts 246°
2026-04-25 06:37 23.85231 100.03172 36416 ft 392 kts 246°
2026-04-25 06:38 23.82556 99.97993 36414 ft 391 kts 246°
2026-04-25 06:38 23.79896 99.92857 36408 ft 392 kts 247°
2026-04-25 06:39 23.77204 99.87657 36405 ft 392 kts 247°
2026-04-25 06:39 23.74526 99.82497 36410 ft 392 kts 246°
2026-04-25 06:40 23.71832 99.77312 36398 ft 391 kts 246°
2026-04-25 06:40 23.69154 99.72160 36380 ft 391 kts 246°
2026-04-25 06:41 23.66479 99.67015 36362 ft 392 kts 246°
2026-04-25 06:41 23.63787 99.61845 36331 ft 391 kts 246°
2026-04-25 06:42 23.61089 99.56678 36310 ft 392 kts 247°
2026-04-25 06:42 23.58405 99.51537 36288 ft 392 kts 247°
2026-04-25 06:43 23.55715 99.46387 36282 ft 390 kts 246°
2026-04-25 06:43 23.53131 99.41221 36304 ft 387 kts 251°
2026-04-25 06:44 23.51160 99.35770 36329 ft 385 kts 256°
2026-04-25 06:44 23.49465 99.30260 36353 ft 384 kts 256°
2026-04-25 06:45 23.47796 99.24767 36377 ft 383 kts 256°
2026-04-25 06:45 23.46110 99.19280 36345 ft 384 kts 256°
2026-04-25 06:46 23.44394 99.13751 36315 ft 384 kts 256°
2026-04-25 06:46 23.42678 99.08244 36273 ft 385 kts 256°
2026-04-25 06:47 23.40954 99.02737 36221 ft 383 kts 256°
2026-04-25 06:47 23.39221 98.97193 36182 ft 386 kts 256°
2026-04-25 06:48 23.37486 98.91658 36180 ft 386 kts 256°
2026-04-25 06:48 23.35682 98.86153 36103 ft 386 kts 255°
2026-04-25 06:49 23.33826 98.80662 36119 ft 387 kts 255°
2026-04-25 06:49 23.31983 98.75215 36137 ft 385 kts 255°
2026-04-25 06:50 23.30126 98.69710 36121 ft 387 kts 255°
2026-04-25 06:50 23.28293 98.64268 36108 ft 386 kts 255°
2026-04-25 06:51 23.26445 98.58778 36093 ft 385 kts 255°
2026-04-25 06:51 23.24598 98.53297 36081 ft 387 kts 255°
2026-04-25 06:52 23.22745 98.47810 36075 ft 388 kts 255°
2026-04-25 06:52 23.20894 98.42338 36095 ft 385 kts 255°
2026-04-25 06:53 23.19042 98.36870 36106 ft 387 kts 255°
2026-04-25 06:53 23.17187 98.31396 36129 ft 386 kts 255°
2026-04-25 06:54 23.15336 98.25938 36150 ft 387 kts 255°
2026-04-25 06:54 23.13469 98.20445 36143 ft 386 kts 255°
2026-04-25 06:55 23.11609 98.14979 36118 ft 388 kts 254°
2026-04-25 06:55 23.09734 98.09480 36088 ft 385 kts 254°
2026-04-25 06:56 23.07881 98.04052 36059 ft 386 kts 254°
2026-04-25 06:56 23.06007 97.98565 36030 ft 387 kts 255°
2026-04-25 06:57 23.04141 97.93102 36026 ft 387 kts 255°
2026-04-25 06:57 23.02266 97.87625 36024 ft 388 kts 254°
2026-04-25 06:58 23.00394 97.82173 36022 ft 387 kts 255°
2026-04-25 06:58 22.98797 97.76619 36015 ft 383 kts 263°
2026-04-25 06:59 22.98537 97.70950 36014 ft 379 kts 275°
2026-04-25 06:59 22.99050 97.65250 36005 ft 381 kts 277°
2026-04-25 07:00 22.99692 97.59547 36001 ft 381 kts 278°
2026-04-25 07:00 23.00312 97.53889 35998 ft 380 kts 277°
2026-04-25 07:01 23.00917 97.48167 36004 ft 379 kts 277°
2026-04-25 07:01 23.01503 97.42493 36043 ft 379 kts 277°
2026-04-25 07:02 23.02080 97.36829 36083 ft 380 kts 277°
2026-04-25 07:02 23.02655 97.31163 36106 ft 379 kts 276°
2026-04-25 07:03 23.03228 97.25497 36145 ft 378 kts 277°
2026-04-25 07:03 23.03801 97.19838 36139 ft 379 kts 277°
2026-04-25 07:04 23.04372 97.14169 36124 ft 379 kts 276°
2026-04-25 07:04 23.04940 97.08495 36091 ft 378 kts 276°
2026-04-25 07:05 23.05504 97.02841 36059 ft 379 kts 276°
2026-04-25 07:05 23.06067 96.97167 36032 ft 376 kts 277°
2026-04-25 07:06 23.06629 96.91514 36044 ft 379 kts 276°
2026-04-25 07:06 23.07190 96.85859 36001 ft 377 kts 276°
2026-04-25 07:07 23.07747 96.80167 36009 ft 379 kts 276°
2026-04-25 07:07 23.08299 96.74524 36003 ft 379 kts 277°
2026-04-25 07:08 23.08819 96.68813 35999 ft 378 kts 275°
2026-04-25 07:08 23.08563 96.63106 36023 ft 382 kts 263°
2026-04-25 07:09 23.07288 96.57514 36046 ft 384 kts 258°
2026-04-25 07:09 23.05803 96.51926 36064 ft 385 kts 258°
2026-04-25 07:10 23.04334 96.46345 36076 ft 383 kts 258°
2026-04-25 07:10 23.02894 96.40814 36085 ft 383 kts 258°
2026-04-25 07:11 23.01448 96.35232 36079 ft 385 kts 258°
2026-04-25 07:11 23.00009 96.29670 36075 ft 385 kts 258°
2026-04-25 07:12 22.98566 96.24101 36048 ft 385 kts 258°
2026-04-25 07:12 22.96396 96.15730 35955 ft 385 kts 258°
2026-04-25 07:13 22.94941 96.10126 35898 ft 385 kts 258°
2026-04-25 07:13 22.93492 96.04560 35835 ft 387 kts 258°
2026-04-25 07:14 22.92028 95.98947 35786 ft 386 kts 258°
2026-04-25 07:14 22.90565 95.93359 35781 ft 385 kts 258°
2026-04-25 07:15 22.89105 95.87775 35785 ft 386 kts 258°
2026-04-25 07:15 22.87641 95.82176 35786 ft 385 kts 258°
2026-04-25 07:16 22.86180 95.76604 35796 ft 385 kts 258°
2026-04-25 07:16 22.84710 95.71011 35799 ft 385 kts 258°
2026-04-25 07:17 22.83237 95.65419 35795 ft 386 kts 258°
2026-04-25 07:17 22.81764 95.59828 35790 ft 386 kts 258°
2026-04-25 07:18 22.80291 95.54256 35785 ft 386 kts 258°
2026-04-25 07:18 22.78811 95.48659 35779 ft 387 kts 258°
2026-04-25 07:19 22.77333 95.43079 35783 ft 386 kts 257°
2026-04-25 07:19 22.75856 95.37502 35783 ft 385 kts 258°
2026-04-25 07:20 22.74369 95.31899 35787 ft 386 kts 257°
2026-04-25 07:20 22.72895 95.26349 35787 ft 387 kts 257°
2026-04-25 07:21 22.71402 95.20747 35793 ft 386 kts 257°
2026-04-25 07:21 22.69908 95.15151 35795 ft 386 kts 257°
2026-04-25 07:22 22.68426 95.09605 35790 ft 387 kts 257°
2026-04-25 07:22 22.66930 95.04014 35784 ft 387 kts 257°
2026-04-25 07:23 22.65433 94.98425 35784 ft 386 kts 257°
2026-04-25 07:23 22.63941 94.92865 35782 ft 386 kts 257°
2026-04-25 07:24 22.62441 94.87286 35785 ft 387 kts 257°
2026-04-25 07:24 22.60928 94.81667 35792 ft 389 kts 257°
2026-04-25 07:25 22.59424 94.76091 35797 ft 387 kts 257°
2026-04-25 07:25 22.57916 94.70507 35801 ft 386 kts 257°
2026-04-25 07:26 22.56417 94.64960 35809 ft 387 kts 257°
2026-04-25 07:26 22.54904 94.59370 35813 ft 388 kts 257°
2026-04-25 07:27 22.53384 94.53770 35811 ft 388 kts 257°
2026-04-25 07:27 22.51864 94.48180 35820 ft 388 kts 257°
2026-04-25 07:28 22.50341 94.42586 35857 ft 388 kts 257°
2026-04-25 07:28 22.48818 94.37000 35885 ft 386 kts 257°
2026-04-25 07:29 22.47302 94.31441 35911 ft 387 kts 257°
2026-04-25 07:29 22.45787 94.25893 35940 ft 387 kts 257°
2026-04-25 07:30 22.44253 94.20282 35932 ft 388 kts 257°
2026-04-25 07:30 22.42723 94.14702 35912 ft 388 kts 257°
2026-04-25 07:31 22.41196 94.09137 35892 ft 386 kts 257°
2026-04-25 07:31 22.39665 94.03565 35878 ft 389 kts 257°
2026-04-25 07:32 22.38125 93.97977 35867 ft 388 kts 257°
2026-04-25 07:32 22.36589 93.92416 35913 ft 387 kts 257°
2026-04-25 07:33 22.35054 93.86851 35950 ft 387 kts 257°
2026-04-25 07:33 22.33512 93.81261 35981 ft 388 kts 257°
2026-04-25 07:34 22.31970 93.75690 36009 ft 389 kts 257°
2026-04-25 07:34 22.30420 93.70111 36037 ft 389 kts 256°
2026-04-25 07:35 22.28878 93.64566 36069 ft 388 kts 256°
2026-04-25 07:35 22.27327 93.58991 36093 ft 388 kts 256°
2026-04-25 07:36 22.25781 93.53423 36114 ft 388 kts 257°
2026-04-25 07:36 22.24236 93.47871 36129 ft 387 kts 257°
2026-04-25 07:37 22.22681 93.42297 36128 ft 389 kts 256°
2026-04-25 07:37 22.21133 93.36760 36132 ft 388 kts 257°
2026-04-25 07:38 22.19570 93.31181 36132 ft 387 kts 256°
2026-04-25 07:38 22.18014 93.25639 36128 ft 388 kts 256°
2026-04-25 07:39 22.16445 93.20054 36105 ft 390 kts 256°
2026-04-25 07:39 22.14874 93.14475 36078 ft 388 kts 256°
2026-04-25 07:40 22.13303 93.08910 36051 ft 389 kts 256°
2026-04-25 07:40 22.11727 93.03333 36027 ft 388 kts 256°
2026-04-25 07:41 22.10156 92.97783 36000 ft 387 kts 256°
2026-04-25 07:41 22.08569 92.92169 35960 ft 390 kts 256°
2026-04-25 07:42 22.06993 92.86613 35919 ft 389 kts 256°
2026-04-25 07:42 22.05412 92.81048 35875 ft 390 kts 256°
2026-04-25 07:43 22.03814 92.75422 35824 ft 391 kts 256°
2026-04-25 07:43 22.02226 92.69842 35834 ft 390 kts 256°
2026-04-25 07:44 22.00644 92.64285 35856 ft 388 kts 256°
2026-04-25 07:44 21.99055 92.58712 35885 ft 390 kts 256°
2026-04-25 07:45 21.97465 92.53148 35908 ft 388 kts 256°
2026-04-25 07:45 21.95865 92.47561 35919 ft 390 kts 256°
2026-04-25 07:46 21.94267 92.41979 35888 ft 390 kts 256°
2026-04-25 07:46 21.92675 92.36433 35858 ft 390 kts 256°
2026-04-25 07:47 21.91064 92.30813 35831 ft 390 kts 256°
2026-04-25 07:47 21.90100 92.25127 35809 ft 387 kts 269°
2026-04-25 07:48 21.90699 92.19422 35806 ft 387 kts 282°
2026-04-25 07:48 21.92606 92.13971 35809 ft 392 kts 296°
2026-04-25 07:49 21.95929 92.09281 35807 ft 400 kts 308°
2026-04-25 07:49 22.00085 92.05215 35812 ft 405 kts 314°
2026-04-25 07:50 22.04484 92.01402 35811 ft 405 kts 314°
2026-04-25 07:50 22.08862 91.97609 35814 ft 404 kts 314°
2026-04-25 07:51 22.13249 91.93748 35811 ft 405 kts 314°
2026-04-25 07:51 22.17582 91.89898 35810 ft 403 kts 314°
2026-04-25 07:52 22.21906 91.86037 35818 ft 403 kts 314°
2026-04-25 07:52 22.26223 91.82171 35817 ft 402 kts 313°
2026-04-25 07:53 22.30529 91.78311 35816 ft 401 kts 313°
2026-04-25 07:53 22.34833 91.74447 35813 ft 402 kts 314°
2026-04-25 07:54 22.39115 91.70602 35814 ft 401 kts 314°
2026-04-25 07:54 22.43411 91.66738 35809 ft 402 kts 313°
2026-04-25 07:55 22.47697 91.62884 35798 ft 399 kts 313°
2026-04-25 07:55 22.51988 91.59020 35799 ft 403 kts 313°
2026-04-25 07:56 22.56309 91.55126 35789 ft 398 kts 313°
2026-04-25 07:56 22.60617 91.51238 35790 ft 400 kts 313°
2026-04-25 07:57 22.64926 91.47351 35784 ft 399 kts 313°
2026-04-25 07:57 22.69179 91.43510 35786 ft 398 kts 313°
2026-04-25 07:58 22.73425 91.39671 35789 ft 399 kts 313°
2026-04-25 07:58 22.77682 91.35822 35781 ft 397 kts 313°
2026-04-25 07:59 22.81929 91.31975 35790 ft 397 kts 313°
2026-04-25 07:59 22.86154 91.28146 35789 ft 397 kts 313°
2026-04-25 08:00 22.90387 91.24303 35771 ft 396 kts 313°
2026-04-25 08:00 22.92480 91.22404 35435 ft 392 kts 313°
2026-04-25 08:00 22.94551 91.20528 34894 ft 389 kts 313°
2026-04-25 08:01 22.96637 91.18635 34225 ft 388 kts 313°
2026-04-25 08:01 22.98686 91.16772 33502 ft 388 kts 313°
2026-04-25 08:01 23.00769 91.14876 32763 ft 388 kts 313°
2026-04-25 08:01 23.02827 91.13003 32076 ft 390 kts 313°
2026-04-25 08:02 23.04902 91.11111 31466 ft 389 kts 313°
2026-04-25 08:02 23.06971 91.09225 30920 ft 392 kts 313°
2026-04-25 08:02 23.09100 91.07277 30332 ft 406 kts 313°
2026-04-25 08:02 23.11256 91.05302 29722 ft 410 kts 314°
2026-04-25 08:03 23.13450 91.03301 29099 ft 409 kts 313°
2026-04-25 08:03 23.15641 91.01308 28479 ft 408 kts 314°
2026-04-25 08:03 23.17825 90.99322 27869 ft 407 kts 314°
2026-04-25 08:03 23.19977 90.97372 27263 ft 406 kts 315°
2026-04-25 08:04 23.22155 90.95418 26651 ft 405 kts 315°
2026-04-25 08:04 23.24345 90.93462 26031 ft 404 kts 316°
2026-04-25 08:04 23.26494 90.91545 25420 ft 403 kts 316°
2026-04-25 08:04 23.28657 90.89615 24822 ft 402 kts 317°
2026-04-25 08:05 23.30829 90.87695 24201 ft 402 kts 318°
2026-04-25 08:05 23.33061 90.85873 23574 ft 402 kts 323°
2026-04-25 08:05 23.34653 90.84795 23157 ft 402 kts 328°
2026-04-25 08:05 23.37974 90.83036 22369 ft 402 kts 334°
2026-04-25 08:06 23.40566 90.81878 21767 ft 400 kts 336°
2026-04-25 08:06 23.43170 90.80783 21174 ft 398 kts 337°
2026-04-25 08:06 23.45750 90.79716 20581 ft 396 kts 337°
2026-04-25 08:06 23.48309 90.78653 19994 ft 394 kts 337°
2026-04-25 08:07 23.50863 90.77556 19402 ft 392 kts 336°
2026-04-25 08:07 23.53343 90.76417 18737 ft 392 kts 335°
2026-04-25 08:07 23.55843 90.75223 18094 ft 391 kts 335°
2026-04-25 08:07 23.58337 90.74010 17492 ft 389 kts 335°
2026-04-25 08:08 23.60789 90.72813 16903 ft 387 kts 335°
2026-04-25 08:08 23.63269 90.71605 16310 ft 385 kts 335°
2026-04-25 08:08 23.65688 90.70431 15724 ft 383 kts 335°
2026-04-25 08:08 23.68130 90.69250 15132 ft 381 kts 335°
2026-04-25 08:09 23.70518 90.67994 14546 ft 378 kts 330°
2026-04-25 08:09 23.72746 90.66521 13970 ft 375 kts 325°
2026-04-25 08:09 23.74826 90.64854 13398 ft 373 kts 321°
2026-04-25 08:09 23.76845 90.63062 12814 ft 371 kts 319°
2026-04-25 08:10 23.78809 90.61243 12309 ft 366 kts 318°
2026-04-25 08:10 23.80712 90.59470 12092 ft 354 kts 319°
2026-04-25 08:10 23.82578 90.57777 11982 ft 341 kts 320°
2026-04-25 08:10 23.84387 90.56200 11718 ft 333 kts 321°
2026-04-25 08:11 23.86210 90.54644 11250 ft 331 kts 321°
2026-04-25 08:11 23.88028 90.53105 10807 ft 324 kts 321°
2026-04-25 08:11 23.89781 90.51625 10401 ft 316 kts 321°
2026-04-25 08:11 23.91511 90.50181 9980 ft 306 kts 322°
2026-04-25 08:12 23.93189 90.48802 9611 ft 296 kts 322°
2026-04-25 08:12 23.94800 90.47489 9225 ft 287 kts 322°
2026-04-25 08:12 23.96374 90.46207 8849 ft 277 kts 322°
2026-04-25 08:12 23.97907 90.44955 8500 ft 275 kts 322°
2026-04-25 08:13 23.99452 90.43690 8132 ft 274 kts 322°
2026-04-25 08:13 24.00978 90.42437 7784 ft 274 kts 322°
2026-04-25 08:13 24.02493 90.41193 7428 ft 273 kts 322°
2026-04-25 08:14 24.05548 90.38696 6697 ft 274 kts 323°
2026-04-25 08:14 24.07082 90.37470 6337 ft 273 kts 323°
2026-04-25 08:14 24.08645 90.36233 5971 ft 273 kts 323°
2026-04-25 08:14 24.10171 90.35024 5793 ft 265 kts 323°
2026-04-25 08:15 24.11601 90.33798 5717 ft 253 kts 315°
2026-04-25 08:15 24.12626 90.32301 5632 ft 240 kts 289°
2026-04-25 08:15 24.12819 90.30537 5464 ft 231 kts 260°
2026-04-25 08:15 24.12305 90.28896 5188 ft 230 kts 240°
2026-04-25 08:16 24.11427 90.27432 4960 ft 228 kts 234°
2026-04-25 08:16 24.10468 90.26036 4748 ft 227 kts 233°
2026-04-25 08:16 24.09518 90.24660 4524 ft 226 kts 233°
2026-04-25 08:16 24.08506 90.23377 4315 ft 222 kts 221°
2026-04-25 08:17 24.07145 90.22653 4118 ft 217 kts 187°
2026-04-25 08:17 24.05706 90.22913 3946 ft 210 kts 154°
2026-04-25 08:17 24.04495 90.23804 3766 ft 205 kts 144°
2026-04-25 08:17 24.03391 90.24730 3581 ft 198 kts 145°
2026-04-25 08:18 24.02276 90.25607 3398 ft 196 kts 145°
2026-04-25 08:18 24.01163 90.26475 3217 ft 196 kts 145°
2026-04-25 08:18 24.00054 90.27355 3033 ft 195 kts 146°
2026-04-25 08:18 23.98964 90.28222 2912 ft 193 kts 146°
2026-04-25 08:19 23.97877 90.29085 2854 ft 191 kts 145°
2026-04-25 08:19 23.96801 90.29933 2602 ft 189 kts 145°
2026-04-25 08:19 23.95754 90.30765 2379 ft 181 kts 145°
2026-04-25 08:19 23.94786 90.31534 2134 ft 168 kts 146°
2026-04-25 08:20 23.93844 90.32272 1940 ft 163 kts 146°
2026-04-25 08:20 23.92922 90.33004 1734 ft 165 kts 146°
2026-04-25 08:20 23.91996 90.33727 1525 ft 162 kts 146°
2026-04-25 08:20 23.91081 90.34458 1317 ft 161 kts 144°
2026-04-25 08:21 23.90173 90.35175 1112 ft 160 kts 145°
2026-04-25 08:21 23.89270 90.35885 915 ft 159 kts 145°
2026-04-25 08:21 23.88378 90.36584 714 ft 157 kts 143°
2026-04-25 08:21 23.87491 90.37283 517 ft 157 kts 145°
2026-04-25 08:22 23.86597 90.37989 315 ft 158 kts 142°
2026-04-25 08:22 23.85714 90.38682 137 ft 158 kts 143°
2026-04-25 08:22 23.84838 90.39382 40 ft 140 kts 142°
2026-04-25 08:22 23.84264 90.39838 42 ft 65 kts 144°
2026-04-25 08:23 23.84083 90.40015 44 ft 19 kts 118°
2026-04-25 08:23 23.84026 90.40146 42 ft 18 kts 113°
2026-04-25 08:23 23.83994 90.40283 40 ft 19 kts 87°
2026-04-25 08:23 23.84029 90.40421 39 ft 18 kts 62°
2026-04-25 08:24 23.84097 90.40533 39 ft 14 kts 54°
2026-04-25 08:24 23.84152 90.40581 39 ft 9 kts 359°
2026-04-25 08:24 23.84205 90.40550 40 ft 8 kts 323°
2026-04-25 08:24 23.84255 90.40511 41 ft 10 kts 323°
2026-04-25 08:25 23.84322 90.40457 41 ft 14 kts 324°
2026-04-25 08:25 23.84414 90.40384 42 ft 18 kts 323°
2026-04-25 08:25 23.84523 90.40298 42 ft 19 kts 324°
2026-04-25 08:25 23.84596 90.40241 43 ft 9 kts 329°
2026-04-25 08:26 23.84648 90.40243 44 ft 6 kts 50°
2026-04-25 08:26 23.84670 90.40279 45 ft 4 kts 54°
2026-04-25 08:26 23.84690 90.40307 45 ft 5 kts 53°
2026-04-25 08:26 23.84732 90.40316 46 ft 7 kts 332°
2026-04-25 08:27 23.84783 90.40276 46 ft 11 kts 323°
2026-04-25 08:27 23.84848 90.40224 46 ft 10 kts 323°
2026-04-25 08:27 23.84903 90.40182 46 ft 9 kts 329°
2026-04-25 08:27 23.84965 90.40160 45 ft 9 kts 349°
2026-04-25 08:28 23.85020 90.40128 45 ft 8 kts 323°
2026-04-25 08:28 23.85067 90.40091 45 ft 7 kts 323°
2026-04-25 08:28 23.85109 90.40057 46 ft 7 kts 323°
2026-04-25 08:28 23.85135 90.40048 46 ft 2 kts 13°
2026-04-25 08:29 23.85144 90.40053 46 ft 1 kts 35°
2026-04-25 08:29 23.85159 90.40070 47 ft 3 kts 53°
2026-04-25 08:29 23.85168 90.40082 47 ft 0 kts 53°
2026-04-25 08:29 23.85172 90.40089 47 ft 0 kts 53°
2026-04-25 08:30 23.85173 90.40089 47 ft 0 kts 53°